owner,sensor,date,latitude,longitude,air_pressure(mBar),qcFlag 
TABS,ioos:station:wmo:42047:1,2013-08-01T00:00:00Z,27.8966,-93.5973,1016.5,11111222 
TABS,ioos:station:wmo:42047:1,2013-08-01T00:30:00Z,27.8966,-93.5973,1016.35,11111222 
TABS,ioos:station:wmo:42047:1,2013-08-01T01:00:00Z,27.8966,-93.5973,1016.29,11111222 
TABS,ioos:station:wmo:42047:1,2013-08-01T01:30:00Z,27.8966,-93.5973,1016.31,11111222 
TABS,ioos:station:wmo:42047:1,2013-08-01T02:00:00Z,27.8966,-93.5973,1016.41,11111222 
TABS,ioos:station:wmo:42047:1,2013-08-01T02:30:00Z,27.8966,-93.5973,1016.67,11111222 
TABS,ioos:station:wmo:42047:1,2013-08-01T03:00:00Z,27.8966,-93.5973,1016.62,11111222 
TABS,ioos:station:wmo:42047:1,2013-08-01T03:30:00Z,27.8966,-93.5973,1016.67,11111222 
TABS,ioos:station:wmo:42047:1,2013-08-01T04:00:00Z,27.8966,-93.5973,1016.69,11111222 
TABS,ioos:station:wmo:42047:1,2013-08-01T04:30:00Z,27.8966,-93.5973,1016.71,11111222 
TABS,ioos:station:wmo:42047:1,2013-08-01T05:00:00Z,27.8966,-93.5973,1016.62,11111222 
TABS,ioos:station:wmo:42047:1,2013-08-01T05:30:00Z,27.8966,-93.5973,1016.57,11111222 
TABS,ioos:station:wmo:42047:1,2013-08-01T06:00:00Z,27.8966,-93.5973,1016.43,11111222 
TABS,ioos:station:wmo:42047:1,2013-08-01T06:30:00Z,27.8966,-93.5973,1016.37,11111222 
TABS,ioos:station:wmo:42047:1,2013-08-01T07:00:00Z,27.8966,-93.5973,1016.62,11111222 
TABS,ioos:station:wmo:42047:1,2013-08-01T07:30:00Z,27.8966,-93.5973,1016.36,11111222 
TABS,ioos:station:wmo:42047:1,2013-08-01T08:00:00Z,27.8966,-93.5973,1016.06,11111222 
TABS,ioos:station:wmo:42047:1,2013-08-01T08:30:00Z,27.8966,-93.5973,1015.97,11111222 
TABS,ioos:station:wmo:42047:1,2013-08-01T09:00:00Z,27.8966,-93.5973,1015.84,11111222 
TABS,ioos:station:wmo:42047:1,2013-08-01T09:30:00Z,27.8966,-93.5973,1015.72,11111222 
TABS,ioos:station:wmo:42047:1,2013-08-01T10:00:00Z,27.8966,-93.5973,1015.89,11111222 
TABS,ioos:station:wmo:42047:1,2013-08-01T10:30:00Z,27.8966,-93.5973,1016.27,11111222 
TABS,ioos:station:wmo:42047:1,2013-08-01T11:00:00Z,27.8966,-93.5973,1016.48,11111222 
TABS,ioos:station:wmo:42047:1,2013-08-01T11:30:00Z,27.8966,-93.5973,1016.65,11111222 
TABS,ioos:station:wmo:42047:1,2013-08-01T12:00:00Z,27.8966,-93.5973,1016.67,11111222 
TABS,ioos:station:wmo:42047:1,2013-08-01T12:30:00Z,27.8966,-93.5973,1017.0,11111222 
TABS,ioos:station:wmo:42047:1,2013-08-01T13:00:00Z,27.8966,-93.5973,1017.11,11111222 
TABS,ioos:station:wmo:42047:1,2013-08-01T13:30:00Z,27.8966,-93.5973,1017.05,11111222 
TABS,ioos:station:wmo:42047:1,2013-08-01T14:00:00Z,27.8966,-93.5973,1017.23,11111222 
TABS,ioos:station:wmo:42047:1,2013-08-01T14:30:00Z,27.8966,-93.5973,1017.19,11111222 
TABS,ioos:station:wmo:42047:1,2013-08-01T15:00:00Z,27.8966,-93.5973,1017.28,11111222 
TABS,ioos:station:wmo:42047:1,2013-08-01T15:30:00Z,27.8966,-93.5973,1017.12,11111222 
TABS,ioos:station:wmo:42047:1,2013-08-01T16:00:00Z,27.8966,-93.5973,1017.4,11111222 
TABS,ioos:station:wmo:42047:1,2013-08-01T16:30:00Z,27.8966,-93.5973,1017.39,11111222 
TABS,ioos:station:wmo:42047:1,2013-08-01T17:00:00Z,27.8966,-93.5973,1017.15,11111222 
TABS,ioos:station:wmo:42047:1,2013-08-01T17:30:00Z,27.8966,-93.5973,1017.14,11111222 
TABS,ioos:station:wmo:42047:1,2013-08-01T18:00:00Z,27.8966,-93.5973,1016.87,11111222 
TABS,ioos:station:wmo:42047:1,2013-08-01T18:30:00Z,27.8966,-93.5973,1016.5,11111222 
TABS,ioos:station:wmo:42047:1,2013-08-01T19:00:00Z,27.8966,-93.5973,1016.27,11111222 
TABS,ioos:station:wmo:42047:1,2013-08-01T19:30:00Z,27.8966,-93.5973,1016.16,11111222 
TABS,ioos:station:wmo:42047:1,2013-08-01T20:00:00Z,27.8966,-93.5973,1015.98,11111222 
TABS,ioos:station:wmo:42047:1,2013-08-01T20:30:00Z,27.8966,-93.5973,1015.84,11111222 
TABS,ioos:station:wmo:42047:1,2013-08-01T21:00:00Z,27.8966,-93.5973,1015.62,11111222 
TABS,ioos:station:wmo:42047:1,2013-08-01T21:30:00Z,27.8966,-93.5973,1015.33,11111222 
TABS,ioos:station:wmo:42047:1,2013-08-01T22:00:00Z,27.8966,-93.5973,1015.19,11111222 
TABS,ioos:station:wmo:42047:1,2013-08-01T22:30:00Z,27.8966,-93.5973,1014.93,11111222 
TABS,ioos:station:wmo:42047:1,2013-08-01T23:00:00Z,27.8966,-93.5973,1014.59,11111222 
TABS,ioos:station:wmo:42047:1,2013-08-01T23:30:00Z,27.8966,-93.5973,1014.64,11111222 
TABS,ioos:station:wmo:42047:1,2013-08-02T00:00:00Z,27.8966,-93.5973,1014.65,11111222 
TABS,ioos:station:wmo:42047:1,2013-08-02T00:30:00Z,27.8966,-93.5973,1014.76,11111222 
TABS,ioos:station:wmo:42047:1,2013-08-02T01:00:00Z,27.8966,-93.5973,1014.94,11111222 
TABS,ioos:station:wmo:42047:1,2013-08-02T01:30:00Z,27.8966,-93.5973,1015.08,11111222 
TABS,ioos:station:wmo:42047:1,2013-08-02T02:00:00Z,27.8966,-93.5973,1015.03,11111222 
TABS,ioos:station:wmo:42047:1,2013-08-02T02:30:00Z,27.8966,-93.5973,1015.23,11111222 
TABS,ioos:station:wmo:42047:1,2013-08-02T03:00:00Z,27.8966,-93.5973,1015.4,11111222 
TABS,ioos:station:wmo:42047:1,2013-08-02T03:30:00Z,27.8966,-93.5973,1015.61,11111222 
TABS,ioos:station:wmo:42047:1,2013-08-02T04:00:00Z,27.8966,-93.5973,1015.68,11111222 
TABS,ioos:station:wmo:42047:1,2013-08-02T04:30:00Z,27.8966,-93.5973,1015.47,11111222 
TABS,ioos:station:wmo:42047:1,2013-08-02T05:00:00Z,27.8966,-93.5973,1015.2,11111222 
TABS,ioos:station:wmo:42047:1,2013-08-02T05:30:00Z,27.8966,-93.5973,1014.85,11111222 
TABS,ioos:station:wmo:42047:1,2013-08-02T06:00:00Z,27.8966,-93.5973,1014.83,11111222 
TABS,ioos:station:wmo:42047:1,2013-08-02T06:30:00Z,27.8966,-93.5973,1014.53,11111222 
TABS,ioos:station:wmo:42047:1,2013-08-02T07:00:00Z,27.8966,-93.5973,1014.27,11111222 
TABS,ioos:station:wmo:42047:1,2013-08-02T07:30:00Z,27.8966,-93.5973,1013.97,11111222 
TABS,ioos:station:wmo:42047:1,2013-08-02T08:00:00Z,27.8966,-93.5973,1014.08,11111222 
TABS,ioos:station:wmo:42047:1,2013-08-02T08:30:00Z,27.8966,-93.5973,1014.11,11111222 
TABS,ioos:station:wmo:42047:1,2013-08-02T09:00:00Z,27.8966,-93.5973,1014.17,11111222 
TABS,ioos:station:wmo:42047:1,2013-08-02T09:30:00Z,27.8966,-93.5973,1014.4,11111222 
TABS,ioos:station:wmo:42047:1,2013-08-02T10:00:00Z,27.8966,-93.5973,1014.29,11111222 
TABS,ioos:station:wmo:42047:1,2013-08-02T10:30:00Z,27.8966,-93.5973,1014.4,11111222 
TABS,ioos:station:wmo:42047:1,2013-08-02T11:00:00Z,27.8966,-93.5973,1014.55,11111222 
TABS,ioos:station:wmo:42047:1,2013-08-02T11:30:00Z,27.8966,-93.5973,1014.79,11111222 
TABS,ioos:station:wmo:42047:1,2013-08-02T12:00:00Z,27.8966,-93.5973,1015.04,11111222 
TABS,ioos:station:wmo:42047:1,2013-08-02T12:30:00Z,27.8966,-93.5973,1015.09,11111222 
TABS,ioos:station:wmo:42047:1,2013-08-02T13:00:00Z,27.8966,-93.5973,1015.19,11111222 
TABS,ioos:station:wmo:42047:1,2013-08-02T13:30:00Z,27.8966,-93.5973,1015.52,11111222 
TABS,ioos:station:wmo:42047:1,2013-08-02T14:00:00Z,27.8966,-93.5973,1015.56,11111222 
TABS,ioos:station:wmo:42047:1,2013-08-02T14:30:00Z,27.8966,-93.5973,1016.07,11111222 
TABS,ioos:station:wmo:42047:1,2013-08-02T15:00:00Z,27.8966,-93.5973,1016.53,11111222 
TABS,ioos:station:wmo:42047:1,2013-08-02T15:30:00Z,27.8966,-93.5973,1017.07,11111222 
TABS,ioos:station:wmo:42047:1,2013-08-02T16:00:00Z,27.8966,-93.5973,1016.79,11111222 
TABS,ioos:station:wmo:42047:1,2013-08-02T16:30:00Z,27.8966,-93.5973,1016.32,11111222 
TABS,ioos:station:wmo:42047:1,2013-08-02T17:00:00Z,27.8966,-93.5973,1016.26,11111222 
TABS,ioos:station:wmo:42047:1,2013-08-02T17:30:00Z,27.8966,-93.5973,1016.15,11111222 
TABS,ioos:station:wmo:42047:1,2013-08-02T18:00:00Z,27.8966,-93.5973,1016.27,11111222 
TABS,ioos:station:wmo:42047:1,2013-08-02T18:30:00Z,27.8966,-93.5973,1016.16,11111222 
TABS,ioos:station:wmo:42047:1,2013-08-02T19:00:00Z,27.8966,-93.5973,1015.99,11111222 
TABS,ioos:station:wmo:42047:1,2013-08-02T19:30:00Z,27.8966,-93.5973,1015.81,11111222 
TABS,ioos:station:wmo:42047:1,2013-08-02T20:00:00Z,27.8966,-93.5973,1015.4,11111222 
TABS,ioos:station:wmo:42047:1,2013-08-02T20:30:00Z,27.8966,-93.5973,1015.25,11111222 
TABS,ioos:station:wmo:42047:1,2013-08-02T21:00:00Z,27.8966,-93.5973,1015.25,11111222 
TABS,ioos:station:wmo:42047:1,2013-08-02T21:30:00Z,27.8966,-93.5973,1014.88,11111222 
TABS,ioos:station:wmo:42047:1,2013-08-02T22:00:00Z,27.8966,-93.5973,1014.84,11111222 
TABS,ioos:station:wmo:42047:1,2013-08-02T22:30:00Z,27.8966,-93.5973,1014.84,11111222 
TABS,ioos:station:wmo:42047:1,2013-08-02T23:00:00Z,27.8966,-93.5973,1014.61,11111222 
TABS,ioos:station:wmo:42047:1,2013-08-02T23:30:00Z,27.8966,-93.5973,1014.55,11111222 
TABS,ioos:station:wmo:42047:1,2013-08-03T00:00:00Z,27.8966,-93.5973,1014.75,11111222 
TABS,ioos:station:wmo:42047:1,2013-08-03T00:30:00Z,27.8966,-93.5973,1015.24,11111222 
TABS,ioos:station:wmo:42047:1,2013-08-03T01:00:00Z,27.8966,-93.5973,1015.02,11111222 
TABS,ioos:station:wmo:42047:1,2013-08-03T01:30:00Z,27.8966,-93.5973,1015.35,11111222 
TABS,ioos:station:wmo:42047:1,2013-08-03T02:00:00Z,27.8966,-93.5973,1015.57,11111222 
TABS,ioos:station:wmo:42047:1,2013-08-03T02:30:00Z,27.8966,-93.5973,1015.72,11111222 
TABS,ioos:station:wmo:42047:1,2013-08-03T03:00:00Z,27.8966,-93.5973,1015.94,11111222 
TABS,ioos:station:wmo:42047:1,2013-08-03T03:30:00Z,27.8966,-93.5973,1016.21,11111222 
TABS,ioos:station:wmo:42047:1,2013-08-03T04:00:00Z,27.8966,-93.5973,1016.36,11111222 
TABS,ioos:station:wmo:42047:1,2013-08-03T04:30:00Z,27.8966,-93.5973,1016.33,11111222 
TABS,ioos:station:wmo:42047:1,2013-08-03T05:00:00Z,27.8966,-93.5973,1016.48,11111222 
TABS,ioos:station:wmo:42047:1,2013-08-03T05:30:00Z,27.8966,-93.5973,1016.36,11111222 
TABS,ioos:station:wmo:42047:1,2013-08-03T06:00:00Z,27.8966,-93.5973,1016.24,11111222 
TABS,ioos:station:wmo:42047:1,2013-08-03T06:30:00Z,27.8966,-93.5973,1016.03,11111222 
TABS,ioos:station:wmo:42047:1,2013-08-03T07:00:00Z,27.8966,-93.5973,1015.73,11111222 
TABS,ioos:station:wmo:42047:1,2013-08-03T07:30:00Z,27.8966,-93.5973,1015.58,11111222 
TABS,ioos:station:wmo:42047:1,2013-08-03T08:00:00Z,27.8966,-93.5973,1015.4,11111222 
TABS,ioos:station:wmo:42047:1,2013-08-03T08:30:00Z,27.8966,-93.5973,1015.27,11111222 
TABS,ioos:station:wmo:42047:1,2013-08-03T09:00:00Z,27.8966,-93.5973,1015.31,11111222 
TABS,ioos:station:wmo:42047:1,2013-08-03T09:30:00Z,27.8966,-93.5973,1015.35,11111222 
TABS,ioos:station:wmo:42047:1,2013-08-03T10:00:00Z,27.8966,-93.5973,1015.38,11111222 
TABS,ioos:station:wmo:42047:1,2013-08-03T10:30:00Z,27.8966,-93.5973,1015.45,11111222 
TABS,ioos:station:wmo:42047:1,2013-08-03T11:00:00Z,27.8966,-93.5973,1015.65,11111222 
TABS,ioos:station:wmo:42047:1,2013-08-03T11:30:00Z,27.8966,-93.5973,1015.82,11111222 
TABS,ioos:station:wmo:42047:1,2013-08-03T12:00:00Z,27.8966,-93.5973,1016.2,11111222 
TABS,ioos:station:wmo:42047:1,2013-08-03T12:30:00Z,27.8966,-93.5973,1016.3,11111222 
TABS,ioos:station:wmo:42047:1,2013-08-03T13:00:00Z,27.8966,-93.5973,1016.45,11111222 
TABS,ioos:station:wmo:42047:1,2013-08-03T13:30:00Z,27.8966,-93.5973,1016.79,11111222 
TABS,ioos:station:wmo:42047:1,2013-08-03T14:00:00Z,27.8966,-93.5973,1016.92,11111222 
TABS,ioos:station:wmo:42047:1,2013-08-03T14:30:00Z,27.8966,-93.5973,1017.06,11111222 
TABS,ioos:station:wmo:42047:1,2013-08-03T15:00:00Z,27.8966,-93.5973,1017.33,11111222 
TABS,ioos:station:wmo:42047:1,2013-08-03T15:30:00Z,27.8966,-93.5973,1017.96,11111222 
TABS,ioos:station:wmo:42047:1,2013-08-03T16:00:00Z,27.8966,-93.5973,1018.11,11111222 
TABS,ioos:station:wmo:42047:1,2013-08-03T16:30:00Z,27.8966,-93.5973,1018.21,11111222 
TABS,ioos:station:wmo:42047:1,2013-08-03T17:00:00Z,27.8966,-93.5973,1018.3,11111222 
TABS,ioos:station:wmo:42047:1,2013-08-03T17:30:00Z,27.8966,-93.5973,1018.27,11111222 
TABS,ioos:station:wmo:42047:1,2013-08-03T18:00:00Z,27.8966,-93.5973,1017.98,11111222 
TABS,ioos:station:wmo:42047:1,2013-08-03T18:30:00Z,27.8966,-93.5973,1017.88,11111222 
TABS,ioos:station:wmo:42047:1,2013-08-03T19:00:00Z,27.8966,-93.5973,1017.53,11111222 
TABS,ioos:station:wmo:42047:1,2013-08-03T19:30:00Z,27.8966,-93.5973,1017.19,11111222 
TABS,ioos:station:wmo:42047:1,2013-08-03T20:00:00Z,27.8966,-93.5973,1017.08,11111222 
TABS,ioos:station:wmo:42047:1,2013-08-03T20:30:00Z,27.8966,-93.5973,1016.92,11111222 
TABS,ioos:station:wmo:42047:1,2013-08-03T21:00:00Z,27.8966,-93.5973,1016.79,11111222 
TABS,ioos:station:wmo:42047:1,2013-08-03T21:30:00Z,27.8966,-93.5973,1016.76,11111222 
TABS,ioos:station:wmo:42047:1,2013-08-03T22:00:00Z,27.8966,-93.5973,1016.72,11111222 
TABS,ioos:station:wmo:42047:1,2013-08-03T22:30:00Z,27.8966,-93.5973,1016.68,11111222 
TABS,ioos:station:wmo:42047:1,2013-08-03T23:00:00Z,27.8966,-93.5973,1016.52,11111222 
TABS,ioos:station:wmo:42047:1,2013-08-03T23:30:00Z,27.8966,-93.5973,1016.52,11111222 
TABS,ioos:station:wmo:42047:1,2013-08-04T00:00:00Z,27.8966,-93.5973,1016.55,11111222 
TABS,ioos:station:wmo:42047:1,2013-08-04T00:30:00Z,27.8966,-93.5973,1016.69,11111222 
TABS,ioos:station:wmo:42047:1,2013-08-04T01:00:00Z,27.8966,-93.5973,1016.95,11111222 
TABS,ioos:station:wmo:42047:1,2013-08-04T01:30:00Z,27.8966,-93.5973,1017.21,11111222 
TABS,ioos:station:wmo:42047:1,2013-08-04T02:00:00Z,27.8966,-93.5973,1017.4,11111222 
TABS,ioos:station:wmo:42047:1,2013-08-04T02:30:00Z,27.8966,-93.5973,1017.75,11111222 
TABS,ioos:station:wmo:42047:1,2013-08-04T03:00:00Z,27.8966,-93.5973,1018.02,11111222 
TABS,ioos:station:wmo:42047:1,2013-08-04T03:30:00Z,27.8966,-93.5973,1018.27,11111222 
TABS,ioos:station:wmo:42047:1,2013-08-04T04:00:00Z,27.8966,-93.5973,1018.19,11111222 
TABS,ioos:station:wmo:42047:1,2013-08-04T04:30:00Z,27.8966,-93.5973,1018.15,11111222 
TABS,ioos:station:wmo:42047:1,2013-08-04T05:00:00Z,27.8966,-93.5973,1018.02,11111222 
TABS,ioos:station:wmo:42047:1,2013-08-04T05:30:00Z,27.8966,-93.5973,1017.78,11111222 
TABS,ioos:station:wmo:42047:1,2013-08-04T06:00:00Z,27.8966,-93.5973,1017.85,11111222 
TABS,ioos:station:wmo:42047:1,2013-08-04T06:30:00Z,27.8966,-93.5973,1017.79,11111222 
TABS,ioos:station:wmo:42047:1,2013-08-04T07:00:00Z,27.8966,-93.5973,1017.36,11111222 
TABS,ioos:station:wmo:42047:1,2013-08-04T07:30:00Z,27.8966,-93.5973,1017.22,11111222 
TABS,ioos:station:wmo:42047:1,2013-08-04T08:00:00Z,27.8966,-93.5973,1017.27,11111222 
TABS,ioos:station:wmo:42047:1,2013-08-04T08:30:00Z,27.8966,-93.5973,1017.23,11111222 
TABS,ioos:station:wmo:42047:1,2013-08-04T09:00:00Z,27.8966,-93.5973,1017.2,11111222 
TABS,ioos:station:wmo:42047:1,2013-08-04T09:30:00Z,27.8966,-93.5973,1017.16,11111222 
TABS,ioos:station:wmo:42047:1,2013-08-04T10:00:00Z,27.8966,-93.5973,1017.22,11111222 
TABS,ioos:station:wmo:42047:1,2013-08-04T10:30:00Z,27.8966,-93.5973,1017.36,11111222 
TABS,ioos:station:wmo:42047:1,2013-08-04T11:00:00Z,27.8966,-93.5973,1017.46,11111222 
TABS,ioos:station:wmo:42047:1,2013-08-04T11:30:00Z,27.8966,-93.5973,1017.51,11111222 
TABS,ioos:station:wmo:42047:1,2013-08-04T12:00:00Z,27.8966,-93.5973,1017.9,11111222 
TABS,ioos:station:wmo:42047:1,2013-08-04T12:30:00Z,27.8966,-93.5973,1018.18,11111222 
TABS,ioos:station:wmo:42047:1,2013-08-04T13:00:00Z,27.8966,-93.5973,1018.58,11111222 
TABS,ioos:station:wmo:42047:1,2013-08-04T13:30:00Z,27.8966,-93.5973,1019.05,11111222 
TABS,ioos:station:wmo:42047:1,2013-08-04T14:00:00Z,27.8966,-93.5973,1019.12,11111222 
TABS,ioos:station:wmo:42047:1,2013-08-04T14:30:00Z,27.8966,-93.5973,1019.27,11111222 
TABS,ioos:station:wmo:42047:1,2013-08-04T15:00:00Z,27.8966,-93.5973,1019.52,11111222 
TABS,ioos:station:wmo:42047:1,2013-08-04T15:30:00Z,27.8966,-93.5973,1019.44,11111222 
TABS,ioos:station:wmo:42047:1,2013-08-04T16:00:00Z,27.8966,-93.5973,1019.68,11111222 
TABS,ioos:station:wmo:42047:1,2013-08-04T16:30:00Z,27.8966,-93.5973,1019.58,11111222 
TABS,ioos:station:wmo:42047:1,2013-08-04T17:00:00Z,27.8966,-93.5973,1019.43,11111222 
TABS,ioos:station:wmo:42047:1,2013-08-04T17:30:00Z,27.8966,-93.5973,1019.26,11111222 
TABS,ioos:station:wmo:42047:1,2013-08-04T18:00:00Z,27.8966,-93.5973,1019.03,11111222 
TABS,ioos:station:wmo:42047:1,2013-08-04T18:30:00Z,27.8966,-93.5973,1018.82,11111222 
TABS,ioos:station:wmo:42047:1,2013-08-04T19:00:00Z,27.8966,-93.5973,1018.48,11111222 
TABS,ioos:station:wmo:42047:1,2013-08-04T19:30:00Z,27.8966,-93.5973,1018.2,11111222 
TABS,ioos:station:wmo:42047:1,2013-08-04T20:00:00Z,27.8966,-93.5973,1017.88,11111222 
TABS,ioos:station:wmo:42047:1,2013-08-04T20:30:00Z,27.8966,-93.5973,1017.7,11111222 
TABS,ioos:station:wmo:42047:1,2013-08-04T21:00:00Z,27.8966,-93.5973,1017.5,11111222 
TABS,ioos:station:wmo:42047:1,2013-08-04T21:30:00Z,27.8966,-93.5973,1017.34,11111222 
TABS,ioos:station:wmo:42047:1,2013-08-04T22:00:00Z,27.8966,-93.5973,1017.28,11111222 
TABS,ioos:station:wmo:42047:1,2013-08-04T22:30:00Z,27.8966,-93.5973,1017.21,11111222 
TABS,ioos:station:wmo:42047:1,2013-08-04T23:00:00Z,27.8966,-93.5973,1017.08,11111222 
TABS,ioos:station:wmo:42047:1,2013-08-04T23:30:00Z,27.8966,-93.5973,1017.05,11111222 
TABS,ioos:station:wmo:42047:1,2013-08-05T00:00:00Z,27.8966,-93.5973,1017.03,11111222 
TABS,ioos:station:wmo:42047:1,2013-08-05T00:30:00Z,27.8966,-93.5973,1017.31,11111222 
TABS,ioos:station:wmo:42047:1,2013-08-05T01:00:00Z,27.8966,-93.5973,1017.3,11111222 
TABS,ioos:station:wmo:42047:1,2013-08-05T01:30:00Z,27.8966,-93.5973,1017.23,11111222 
TABS,ioos:station:wmo:42047:1,2013-08-05T02:00:00Z,27.8966,-93.5973,1017.39,11111222 
TABS,ioos:station:wmo:42047:1,2013-08-05T02:30:00Z,27.8966,-93.5973,1017.64,11111222 
TABS,ioos:station:wmo:42047:1,2013-08-05T03:00:00Z,27.8966,-93.5973,1017.91,11111222 
TABS,ioos:station:wmo:42047:1,2013-08-05T03:30:00Z,27.8966,-93.5973,1017.99,11111222 
TABS,ioos:station:wmo:42047:1,2013-08-05T04:00:00Z,27.8966,-93.5973,1018.18,11111222 
TABS,ioos:station:wmo:42047:1,2013-08-05T04:30:00Z,27.8966,-93.5973,1018.29,11111222 
TABS,ioos:station:wmo:42047:1,2013-08-05T05:00:00Z,27.8966,-93.5973,1018.21,11111222 
TABS,ioos:station:wmo:42047:1,2013-08-05T05:30:00Z,27.8966,-93.5973,1017.88,11111222 
TABS,ioos:station:wmo:42047:1,2013-08-05T06:00:00Z,27.8966,-93.5973,1017.74,11111222 
TABS,ioos:station:wmo:42047:1,2013-08-05T06:30:00Z,27.8966,-93.5973,1017.5,11111222 
TABS,ioos:station:wmo:42047:1,2013-08-05T07:00:00Z,27.8966,-93.5973,1017.29,11111222 
TABS,ioos:station:wmo:42047:1,2013-08-05T07:30:00Z,27.8966,-93.5973,1017.24,11111222 
TABS,ioos:station:wmo:42047:1,2013-08-05T08:00:00Z,27.8966,-93.5973,1017.0,11111222 
TABS,ioos:station:wmo:42047:1,2013-08-05T08:30:00Z,27.8966,-93.5973,1017.01,11111222 
TABS,ioos:station:wmo:42047:1,2013-08-05T09:00:00Z,27.8966,-93.5973,1017.12,11111222 
TABS,ioos:station:wmo:42047:1,2013-08-05T09:30:00Z,27.8966,-93.5973,1016.93,11111222 
TABS,ioos:station:wmo:42047:1,2013-08-05T10:00:00Z,27.8966,-93.5973,1016.96,11111222 
TABS,ioos:station:wmo:42047:1,2013-08-05T10:30:00Z,27.8966,-93.5973,1017.12,11111222 
TABS,ioos:station:wmo:42047:1,2013-08-05T11:00:00Z,27.8966,-93.5973,1017.49,11111222 
TABS,ioos:station:wmo:42047:1,2013-08-05T11:30:00Z,27.8966,-93.5973,1017.73,11111222 
TABS,ioos:station:wmo:42047:1,2013-08-05T12:00:00Z,27.8966,-93.5973,1017.77,11111222 
TABS,ioos:station:wmo:42047:1,2013-08-05T12:30:00Z,27.8966,-93.5973,1018.0,11111222 
TABS,ioos:station:wmo:42047:1,2013-08-05T13:00:00Z,27.8966,-93.5973,1018.24,11111222 
TABS,ioos:station:wmo:42047:1,2013-08-05T13:30:00Z,27.8966,-93.5973,1018.31,11111222 
TABS,ioos:station:wmo:42047:1,2013-08-05T14:00:00Z,27.8966,-93.5973,1018.44,11111222 
TABS,ioos:station:wmo:42047:1,2013-08-05T14:30:00Z,27.8966,-93.5973,1018.42,11111222 
TABS,ioos:station:wmo:42047:1,2013-08-05T15:00:00Z,27.8966,-93.5973,1018.56,11111222 
TABS,ioos:station:wmo:42047:1,2013-08-05T15:30:00Z,27.8966,-93.5973,1018.73,11111222 
TABS,ioos:station:wmo:42047:1,2013-08-05T16:00:00Z,27.8966,-93.5973,1018.8,11111222 
TABS,ioos:station:wmo:42047:1,2013-08-05T16:30:00Z,27.8966,-93.5973,1018.75,11111222 
TABS,ioos:station:wmo:42047:1,2013-08-05T17:00:00Z,27.8966,-93.5973,1018.68,11111222 
TABS,ioos:station:wmo:42047:1,2013-08-05T17:30:00Z,27.8966,-93.5973,1018.5,11111222 
TABS,ioos:station:wmo:42047:1,2013-08-05T18:00:00Z,27.8966,-93.5973,1018.34,11111222 
TABS,ioos:station:wmo:42047:1,2013-08-05T18:30:00Z,27.8966,-93.5973,1018.13,11111222 
TABS,ioos:station:wmo:42047:1,2013-08-05T19:00:00Z,27.8966,-93.5973,1018.0,11111222 
TABS,ioos:station:wmo:42047:1,2013-08-05T19:30:00Z,27.8966,-93.5973,1017.5,11111222 
TABS,ioos:station:wmo:42047:1,2013-08-05T20:00:00Z,27.8966,-93.5973,1017.35,11111222 
TABS,ioos:station:wmo:42047:1,2013-08-05T20:30:00Z,27.8966,-93.5973,1017.14,11111222 
TABS,ioos:station:wmo:42047:1,2013-08-05T21:00:00Z,27.8966,-93.5973,1016.79,11111222 
TABS,ioos:station:wmo:42047:1,2013-08-05T21:30:00Z,27.8966,-93.5973,1016.64,11111222 
TABS,ioos:station:wmo:42047:1,2013-08-05T22:00:00Z,27.8966,-93.5973,1016.28,11111222 
TABS,ioos:station:wmo:42047:1,2013-08-05T22:30:00Z,27.8966,-93.5973,1016.12,11111222 
TABS,ioos:station:wmo:42047:1,2013-08-05T23:00:00Z,27.8966,-93.5973,1016.1,11111222 
TABS,ioos:station:wmo:42047:1,2013-08-05T23:30:00Z,27.8966,-93.5973,1016.0,11111222 
TABS,ioos:station:wmo:42047:1,2013-08-06T00:00:00Z,27.8966,-93.5973,1016.09,11111222 
TABS,ioos:station:wmo:42047:1,2013-08-06T00:30:00Z,27.8966,-93.5973,1016.1,11111222 
TABS,ioos:station:wmo:42047:1,2013-08-06T01:00:00Z,27.8966,-93.5973,1016.06,11111222 
TABS,ioos:station:wmo:42047:1,2013-08-06T01:30:00Z,27.8966,-93.5973,1016.3,11111222 
TABS,ioos:station:wmo:42047:1,2013-08-06T02:00:00Z,27.8966,-93.5973,1016.35,11111222 
TABS,ioos:station:wmo:42047:1,2013-08-06T02:30:00Z,27.8966,-93.5973,1016.19,11111222 
TABS,ioos:station:wmo:42047:1,2013-08-06T03:00:00Z,27.8966,-93.5973,1016.07,11111222 
TABS,ioos:station:wmo:42047:1,2013-08-06T03:30:00Z,27.8966,-93.5973,1016.18,11111222 
TABS,ioos:station:wmo:42047:1,2013-08-06T04:00:00Z,27.8966,-93.5973,1016.31,11111222 
TABS,ioos:station:wmo:42047:1,2013-08-06T04:30:00Z,27.8966,-93.5973,1016.51,11111222 
TABS,ioos:station:wmo:42047:1,2013-08-06T05:00:00Z,27.8966,-93.5973,1016.4,11111222 
TABS,ioos:station:wmo:42047:1,2013-08-06T05:30:00Z,27.8966,-93.5973,1016.23,11111222 
TABS,ioos:station:wmo:42047:1,2013-08-06T06:00:00Z,27.8966,-93.5973,1016.03,11111222 
TABS,ioos:station:wmo:42047:1,2013-08-06T06:30:00Z,27.8966,-93.5973,1015.76,11111222 
TABS,ioos:station:wmo:42047:1,2013-08-06T07:00:00Z,27.8966,-93.5973,1015.08,11111222 
TABS,ioos:station:wmo:42047:1,2013-08-06T07:30:00Z,27.8966,-93.5973,1014.74,11111222 
TABS,ioos:station:wmo:42047:1,2013-08-06T08:00:00Z,27.8966,-93.5973,1014.77,11111222 
TABS,ioos:station:wmo:42047:1,2013-08-06T08:30:00Z,27.8966,-93.5973,1014.58,11111222 
TABS,ioos:station:wmo:42047:1,2013-08-06T09:00:00Z,27.8966,-93.5973,1014.45,11111222 
TABS,ioos:station:wmo:42047:1,2013-08-06T09:30:00Z,27.8966,-93.5973,1014.59,11111222 
TABS,ioos:station:wmo:42047:1,2013-08-06T10:00:00Z,27.8966,-93.5973,1014.86,11111222 
TABS,ioos:station:wmo:42047:1,2013-08-06T10:30:00Z,27.8966,-93.5973,1015.01,11111222 
TABS,ioos:station:wmo:42047:1,2013-08-06T11:00:00Z,27.8966,-93.5973,1015.28,11111222 
TABS,ioos:station:wmo:42047:1,2013-08-06T11:30:00Z,27.8966,-93.5973,1015.24,11111222 
TABS,ioos:station:wmo:42047:1,2013-08-06T12:00:00Z,27.8966,-93.5973,1015.21,11111222 
TABS,ioos:station:wmo:42047:1,2013-08-06T12:30:00Z,27.8966,-93.5973,1015.61,11111222 
TABS,ioos:station:wmo:42047:1,2013-08-06T13:00:00Z,27.8966,-93.5973,1015.66,11111222 
TABS,ioos:station:wmo:42047:1,2013-08-06T13:30:00Z,27.8966,-93.5973,1016.08,11111222 
TABS,ioos:station:wmo:42047:1,2013-08-06T14:00:00Z,27.8966,-93.5973,1016.23,11111222 
TABS,ioos:station:wmo:42047:1,2013-08-06T14:30:00Z,27.8966,-93.5973,1016.36,11111222 
TABS,ioos:station:wmo:42047:1,2013-08-06T15:00:00Z,27.8966,-93.5973,1016.59,11111222 
TABS,ioos:station:wmo:42047:1,2013-08-06T15:30:00Z,27.8966,-93.5973,1016.56,11111222 
TABS,ioos:station:wmo:42047:1,2013-08-06T16:00:00Z,27.8966,-93.5973,1016.75,11111222 
TABS,ioos:station:wmo:42047:1,2013-08-06T16:30:00Z,27.8966,-93.5973,1016.81,11111222 
TABS,ioos:station:wmo:42047:1,2013-08-06T17:00:00Z,27.8966,-93.5973,1016.81,11111222 
TABS,ioos:station:wmo:42047:1,2013-08-06T17:30:00Z,27.8966,-93.5973,1016.7,11111222 
TABS,ioos:station:wmo:42047:1,2013-08-06T18:00:00Z,27.8966,-93.5973,1016.53,11111222 
TABS,ioos:station:wmo:42047:1,2013-08-06T18:30:00Z,27.8966,-93.5973,1016.37,11111222 